Orbital Elements at Epoch 2459200.5 (2020-Dec-17.0) TDB
Reference: JPL 43 (heliocentric ecliptic J2000)
Element | Value | Uncertainty (1-sigma) | Units |
e | .1804000157705648 | 3.3247e-08 | |
a | 3.192733337975177 | 1.4449e-08 | au |
q | 2.616764193453247 | 1.0254e-07 | au |
i | 1.523993792290285 | 3.6288e-06 | deg |
node | 157.888584820023 | 0.00012866 | deg |
peri | 176.7930636126393 | 0.00012903 | deg |
M | 123.8970063059924 | 1.097e-05 | deg |
tp | 2458483.365345751771 (2018-Dec-30.86534575) | 6.2013e-05 | TDB |
period | 2083.73457298682 5.70 | 1.4145e-05 3.873e-08 | d yr |
n | .1727667259865909 | 1.1728e-09 | deg/d |
Q | 3.768702482497106 | 1.7056e-08 | au |
|
| | Orbit Determination Parameters
Additional Information
|